Location: ???? ?????
(30.0052°N, 31.2891°E)
Time: 22:29:25
(UTC+00:00)

Helios 1A - Pass Details

Date: 26 May 2022
Orbit: 582 x 600 km, 98.2° (Epoch: 29 June)

Event Time Altitude Azimuth Distance (km) Brightness Sun altitude
Exits shadow 01:17:36 21° 291° (WNW) 1,341 4.5 -18.9°
Drops below altitude 10° 01:19:46 10° 318° (NW) 1,934 5.6 -18.5°
Sets 01:22:16 0° 332° (NNW) 2,842 6.6 -18.1°
